Temperature
16 13 13 14 14 15 15 15 14 15 14 13 10 9 8 8 8 8 8 8 8 7 7 7 7 6 6 6 6 6 5 5 5 5 5 6 6 7 7 8 9 9 9 10
13 13 14 15 14 14 14 14 13 13 13 11 8 8 8 8 8 8 8 7 7 7 6 6 6 6 5 5 5 5 5 4 4 4 4 4 4 4 5 5 7 7 8 9
13 14 14 14 13 12 13 13 13 13 12 10 8 8 8 7 8 7 7 6 6 5 5 5 5 4 4 4 4 4 4 4 4 3 3 3 4 4 4 4 5 6 7 7
13 13 14 13 13 12 12 13 13 12 11 10 10 7 7 7 6 5 6 5 5 5 4 4 4 3 3 3 3 3 3 2 3 3 2 2 2 2 2 3 3 4 5 6
13 13 12 13 13 12 12 12 11 11 10 10 10 7 6 6 5 4 5 5 4 4 4 3 3 3 3 2 2 2 1 1 1 1 1 1 2 2 2 2 3 3 4 5
13 14 13 13 12 12 11 10 11 9 9 11 11 8 5 5 5 4 4 4 4 3 3 3 2 2 2 2 1 1 0 0 0 0 0 0 1 1 1 1 2 2 3 4
11 13 12 12 11 10 9 8 9 10 9 10 8 5 4 5 4 4 4 3 3 2 2 1 1 1 0 0 -0 -1 -1 -1 -1 -1 -0 -0 -0 0 0 0 -0 0 1 3
9 10 11 12 12 11 10 9 9 9 8 8 7 4 4 4 5 4 3 3 2 2 1 0 -0 -1 -1 -1 -2 -2 -2 -2 -2 -1 -1 -1 -1 -1 -1 -1 -2 -2 -1 0
8 9 10 12 12 12 11 9 9 7 7 7 6 4 4 4 3 3 3 2 1 1 -0 -1 -1 -2 -2 -2 -3 -3 -3 -3 -3 -3 -2 -2 -2 -2 -2 -2 -3 -3 -2 -1
9 8 9 10 12 11 11 10 7 7 7 7 7 5 3 2 2 2 2 1 1 -0 -1 -2 -2 -3 -3 -3 -4 -4 -4 -4 -4 -4 -4 -4 -3 -3 -3 -3 -4 -3 -3 -2
7 8 8 8 10 10 10 9 7 6 6 5 5 4 4 3 2 1 1 1 -0 -2 -2 -3 -3 -4 -4 -5 -5 -5 -5 -5 -6 -6 -5 -5 -5 -4 -4 -4 -4 -4 -3 -3
6 6 6 7 9 9 9 8 6 6 5 4 3 3 3 3 3 2 1 -0 -1 -2 -3 -4 -4 -5 -5 -6 -6 -7 -7 -7 -7 -7 -7 -7 -6 -6 -5 -5 -5 -4 -4 -3
6 6 7 8 9 7 7 7 7 5 3 3 2 2 3 2 2 1 0 -1 -2 -3 -4 -4 -5 -6 -7 -7 -7 -8 -8 -8 -8 -8 -8 -7 -7 -6 -6 -6 -5 -5 -4 -3
7 5 6 8 7 6 5 6 6 5 2 2 2 1 1 1 0 1 -0 -2 -3 -4 -5 -5 -6 -7 -8 -8 -8 -9 -9 -9 -9 -9 -9 -8 -8 -7 -7 -6 -6 -6 -5 -4
5 5 5 5 5 5 5 4 4 4 3 2 1 1 0 -0 -0 -0 -1 -3 -4 -5 -5 -7 -8 -8 -9 -9 -9 -10 -10 -10 -10 -9 -9 -9 -9 -8 -8 -7 -7 -6 -6 -5
4 5 5 4 4 4 3 3 3 3 3 2 1 1 1 1 0 -0 -3 -4 -5 -6 -7 -8 -9 -9 -10 -10 -10 -10 -10 -10 -10 -10 -10 -9 -9 -9 -8 -8 -8 -7 -7 -7
3 4 4 2 2 3 1 2 2 3 2 2 0 0 0 -1 -0 -1 -4 -5 -6 -7 -8 -9 -10 -10 -11 -11 -11 -11 -11 -10 -10 -10 -10 -10 -10 -9 -9 -9 -9 -8 -8 -8
3 3 1 0 1 1 2 3 3 2 2 2 1 0 0 -1 -1 -2 -5 -6 -6 -8 -9 -9 -10 -11 -11 -11 -11 -11 -11 -11 -10 -10 -10 -10 -10 -10 -10 -10 -9 -9 -9 -8
3 2 -0 -1 0 0 2 3 3 2 1 1 0 -0 -1 -2 -2 -3 -5 -6 -7 -8 -9 -10 -11 -11 -11 -11 -11 -11 -11 -11 -11 -11 -11 -11 -11 -11 -11 -10 -10 -10 -10 -9
2 0 -1 -1 0 0 2 3 4 2 0 1 0 -1 -3 -3 -3 -4 -6 -7 -8 -9 -9 -10 -10 -11 -11 -12 -12 -12 -12 -12 -12 -12 -12 -12 -12 -12 -12 -11 -11 -11 -10 -10
2 0 -1 -1 -1 -1 2 3 2 -0 -0 2 0 -2 -4 -4 -5 -5 -7 -8 -9 -9 -10 -10 -10 -11 -12 -12 -12 -12 -13 -13 -13 -13 -13 -13 -13 -13 -13 -12 -12 -12 -11 -11
1 -0 -1 -1 -2 -1 3 2 1 1 2 1 -1 -3 -4 -5 -6 -7 -8 -9 -9 -9 -10 -10 -11 -11 -12 -12 -13 -13 -13 -14 -13 -13 -13 -14 -14 -14 -14 -13 -13 -12 -12 -12
0 0 -1 -1 -0 2 3 2 2 1 1 -0 -2 -3 -4 -6 -7 -8 -9 -9 -10 -10 -10 -11 -11 -12 -12 -13 -13 -14 -14 -14 -14 -14 -14 -14 -14 -14 -14 -14 -14 -13 -13 -12
1 1 -1 0 1 2 2 2 2 1 0 -1 -2 -3 -5 -6 -7 -8 -9 -9 -10 -10 -11 -11 -12 -12 -13 -13 -14 -14 -14 -14 -14 -14 -14 -15 -15 -15 -15 -15 -15 -14 -14 -13
0 0 -0 -0 1 2 2 2 1 1 -0 -2 -3 -4 -6 -7 -8 -8 -9 -9 -10 -10 -11 -12 -12 -13 -13 -14 -14 -14 -14 -14 -14 -14 -15 -15 -15 -15 -15 -15 -15 -15 -15 -14
0 -1 -1 -1 1 2 2 1 1 -0 -1 -3 -4 -5 -6 -7 -8 -9 -9 -10 -10 -11 -11 -12 -12 -13 -13 -14 -14 -14 -14 -14 -15 -15 -15 -15 -15 -15 -15 -15 -15 -15 -15 -15
Wind_Speed
6 8 6 7 5 2 2 2 4 2 5 6 10 11 7 6 9 10 9 9 10 10 10 11 11 11 12 13 13 13 14 13 11 8 8 8 9 10 11 11 19 21 21 19
8 7 7 4 7 8 5 3 4 5 6 6 11 9 7 6 7 7 8 9 10 11 13 14 14 14 15 16 17 17 17 16 13 9 7 5 5 5 7 7 14 20 21 20
8 4 5 6 9 8 5 2 2 5 5 6 9 5 5 5 7 9 9 9 10 13 13 14 14 13 14 15 16 17 16 16 14 12 8 8 6 6 7 10 13 16 21 20
6 6 7 7 5 5 5 5 6 5 2 3 5 4 4 3 7 10 10 11 12 12 12 12 12 13 13 13 13 14 14 15 14 12 10 10 10 8 8 9 10 16 18 18
4 4 7 7 6 5 7 9 7 4 5 2 0 5 2 2 6 9 9 10 11 11 12 12 12 12 12 13 13 13 13 13 12 12 11 10 9 8 9 11 13 14 16 16
3 2 4 5 5 5 7 7 6 5 4 1 2 5 1 4 5 6 9 10 11 11 11 11 12 12 12 13 13 13 14 12 12 11 11 11 11 12 15 15 14 15 14 15
9 5 6 6 8 9 10 8 7 8 6 4 4 7 4 5 6 7 8 9 10 10 10 11 13 14 15 16 16 16 16 15 14 13 13 12 12 13 13 15 15 16 15 15
8 7 7 6 3 3 5 5 4 2 5 6 4 6 6 5 5 5 6 7 9 10 10 11 13 14 16 17 17 17 17 17 17 16 15 13 14 13 13 15 16 16 14 15
5 6 6 5 3 2 4 3 2 4 4 5 2 4 5 4 5 7 9 10 10 10 10 11 12 14 15 17 17 18 19 19 19 18 17 16 16 16 17 18 17 15 15 17
1 5 6 7 4 5 3 2 5 2 4 6 4 2 3 8 10 10 11 11 11 10 10 11 12 15 16 17 17 18 19 20 20 19 18 16 17 17 18 17 19 19 19 19
4 1 7 6 5 5 6 4 4 1 2 3 5 2 5 6 7 9 10 11 10 11 12 13 14 15 17 18 19 19 20 20 20 20 19 18 18 17 18 17 19 19 19 19
4 2 4 6 5 3 3 4 4 1 5 3 3 2 6 5 6 8 10 10 9 10 11 12 14 16 17 19 19 20 20 20 20 20 19 19 18 18 18 19 20 20 19 18
3 3 5 6 3 8 5 3 1 3 2 2 2 4 2 7 9 11 13 11 10 12 14 13 14 15 17 18 19 20 20 20 20 19 19 18 18 19 19 19 19 19 19 19
3 2 3 4 4 4 7 6 3 2 1 2 3 8 8 14 15 17 15 11 10 12 15 16 16 15 16 18 18 19 19 19 19 18 18 18 18 18 18 18 18 18 18 19
4 0 3 4 2 2 3 5 4 5 4 1 6 6 7 10 11 11 9 10 13 15 17 17 17 16 17 17 17 17 17 17 17 17 16 16 16 16 16 17 17 16 16 16
3 1 3 4 5 4 6 8 6 5 2 2 4 5 7 10 9 10 7 11 14 15 16 16 17 17 17 17 17 17 17 17 17 16 16 15 15 15 15 15 15 15 15 13
2 2 1 4 6 4 3 3 4 2 1 0 3 7 10 10 14 12 7 10 13 14 14 15 15 15 15 15 15 15 16 15 16 15 16 16 16 15 15 16 15 14 13 12
4 3 2 2 5 1 4 4 2 3 3 3 5 8 8 9 12 2 5 9 10 11 12 12 12 13 12 12 13 13 13 14 14 15 15 16 15 15 14 15 15 14 11 11
3 4 3 2 2 5 3 4 4 4 5 2 5 8 9 10 6 2 7 9 8 8 9 8 9 10 11 12 13 12 12 13 13 14 15 15 15 14 14 15 14 11 10 10
5 5 5 3 1 5 5 6 5 1 4 4 4 7 8 11 10 4 9 9 7 8 8 9 9 9 11 12 12 11 11 13 14 15 15 14 14 14 12 14 12 11 9 10
1 3 3 4 4 7 6 6 2 3 6 8 4 5 6 5 6 9 10 8 7 8 8 9 9 9 10 12 11 10 11 13 14 15 14 14 14 13 12 12 11 12 10 10
7 5 5 4 4 7 5 1 2 6 5 3 2 3 5 6 7 8 8 8 9 9 9 9 9 10 10 10 10 10 11 13 14 14 14 14 13 13 14 12 11 11 10 10
7 8 6 8 7 5 2 4 4 3 2 1 2 4 4 4 5 7 7 6 7 8 9 8 9 10 9 9 9 10 12 13 14 14 13 12 13 12 12 11 10 10 9 9
3 4 4 3 5 4 4 4 2 1 2 2 2 2 1 2 4 5 6 7 7 7 7 7 9 10 9 9 11 10 11 13 13 13 12 11 9 11 10 11 11 10 10 10
6 6 4 3 3 2 2 1 1 3 3 2 1 1 2 3 4 5 5 6 6 8 7 7 8 8 9 10 10 12 12 11 11 11 12 12 11 9 8 9 9 12 8 12
4 7 7 7 6 4 4 3 2 3 3 2 1 2 4 5 4 4 5 5 6 7 6 8 8 10 10 10 11 11 11 11 10 12 11 10 8 8 8 7 8 14 15 18
Wind_Direction
41 54 23 340 351 352 316 316 319 319 33 56 99 98 78 63 65 61 50 41 34 23 3 0 0 358 357 355 354 350 348 344 345 346 349 351 352 348 344 340 336 333 329 323
46 28 332 14 38 43 33 43 5 333 14 75 95 85 70 61 68 67 55 41 29 18 8 4 3 1 359 357 355 353 348 341 337 330 324 322 323 324 326 325 331 332 331 324
84 339 353 54 33 18 5 121 278 288 348 81 112 84 78 43 49 44 34 31 22 20 7 2 1 358 358 359 356 352 344 340 334 331 329 331 330 330 341 341 337 332 328 323
54 3 31 38 25 11 306 255 267 268 303 227 174 167 159 86 50 35 25 22 15 8 2 359 359 357 359 355 350 346 341 339 340 341 345 346 348 339 330 330 326 325 323 321
43 19 33 19 342 340 281 289 289 247 182 218 69 128 186 80 53 28 18 15 10 3 358 355 357 356 354 349 346 341 338 340 343 346 348 347 341 332 328 329 326 326 322 319
32 42 41 342 334 338 317 349 23 55 81 100 5 132 50 25 58 33 16 8 3 354 350 352 355 354 349 346 344 343 344 344 347 349 348 344 340 337 336 336 331 328 321 317
354 13 7 4 2 1 18 31 18 5 4 282 55 91 104 79 71 50 20 2 353 345 347 356 356 352 349 348 348 348 348 349 351 353 352 346 345 340 336 335 330 326 321 316
14 337 342 356 23 340 4 76 94 293 276 294 23 109 137 118 79 45 14 356 348 348 354 360 354 351 349 348 348 348 350 352 354 355 352 349 350 345 339 334 329 322 317 311
23 301 314 331 347 75 18 43 158 177 283 279 279 126 159 63 34 17 4 357 349 347 350 354 352 352 350 348 349 351 354 354 354 354 351 350 348 343 339 335 329 324 318 312
42 294 299 312 356 9 39 88 54 49 302 292 294 92 346 1 359 356 352 345 338 340 345 353 355 355 353 351 352 355 356 355 353 352 351 347 343 341 338 334 331 327 322 317
43 314 311 355 33 340 1 45 56 35 221 254 291 348 47 27 358 344 335 334 338 344 350 354 356 357 354 354 356 355 354 353 352 351 348 346 344 340 338 337 334 330 325 321
7 100 294 286 292 339 57 79 87 0 294 264 257 225 67 19 337 330 330 334 343 349 351 354 357 357 356 355 354 353 352 351 350 348 347 346 343 341 342 343 341 339 336 333
18 83 339 347 354 7 22 31 135 163 172 263 265 264 39 351 341 343 346 348 350 354 355 357 358 357 356 355 353 351 350 349 347 347 347 346 345 344 345 346 347 350 351 350
87 97 188 244 285 324 316 321 304 125 109 301 286 298 326 348 344 340 342 347 348 353 354 355 355 355 356 354 351 348 347 346 345 345 346 347 346 345 346 347 350 354 358 1
85 29 284 276 332 354 5 2 37 82 97 167 292 297 313 321 311 312 325 342 348 351 353 354 353 352 353 352 349 346 343 342 342 342 343 343 342 344 346 348 350 353 359 5
70 69 344 319 21 48 56 26 39 60 57 333 325 299 288 295 299 323 347 351 349 350 351 352 352 352 352 349 346 343 341 341 341 342 342 341 342 344 346 346 349 351 355 1
65 82 16 287 330 63 23 0 24 346 341 224 283 274 295 310 325 329 352 354 351 349 350 351 351 349 346 343 340 338 338 340 343 343 343 343 344 345 347 348 349 348 349 353
124 115 129 302 23 13 233 232 242 270 226 214 263 276 285 292 300 329 30 360 352 352 353 352 350 344 338 334 334 333 336 341 344 345 344 344 345 345 347 349 349 345 343 346
121 132 111 91 338 287 258 275 270 267 247 212 286 297 308 315 306 134 33 11 0 4 359 351 345 334 329 330 331 333 336 341 345 345 344 343 344 345 349 350 347 343 344 348
72 90 112 117 259 260 238 258 280 259 275 257 292 311 324 340 343 336 8 5 12 12 360 351 342 333 333 332 332 332 337 344 345 343 340 340 343 343 348 349 345 343 346 353
111 72 130 169 227 264 249 271 34 68 281 294 323 334 332 329 304 326 351 357 14 8 354 345 336 329 327 329 333 334 337 343 341 340 340 341 343 342 346 345 346 346 348 351
181 172 193 165 206 261 254 113 149 240 261 291 320 308 299 298 316 335 344 353 3 356 347 339 333 329 325 327 334 337 340 338 339 340 341 341 344 347 350 342 344 345 348 345
188 189 187 188 210 222 222 187 211 227 262 229 235 274 284 303 323 337 344 355 355 346 336 331 326 324 324 326 334 336 335 338 341 340 339 339 348 347 347 344 343 344 346 345
235 156 149 211 241 201 185 192 190 161 170 173 220 271 283 323 331 345 350 352 347 336 330 327 329 328 326 328 336 331 331 338 339 338 337 338 344 345 342 347 349 347 346 346
214 172 170 224 257 177 237 293 197 164 153 168 280 47 60 22 10 4 350 342 334 334 327 328 322 319 324 329 330 331 333 333 334 335 336 335 339 334 334 340 342 345 338 347
201 175 174 212 211 187 254 284 193 180 179 184 175 83 61 55 28 1 339 324 320 321 320 320 322 332 330 327 325 324 326 327 328 336 334 330 332 332 333 326 331 340 344 346
Height
1539 1545 1552 1550 1547 1546 1546 1547 1549 1545 1544 1548 1556 1564 1566 1566 1563 1562 1561 1560 1558 1557 1555 1551 1547 1542 1537 1532 1527 1522 1518 1513 1508 1502 1498 1493 1489 1486 1483 1481 1478 1475 1472 1470
1547 1553 1550 1547 1546 1547 1548 1549 1551 1549 1547 1553 1563 1567 1569 1567 1566 1565 1564 1563 1561 1559 1555 1551 1547 1542 1537 1532 1527 1522 1517 1512 1507 1502 1497 1493 1488 1484 1480 1476 1472 1469 1465 1462
1554 1555 1549 1549 1550 1551 1551 1551 1550 1551 1550 1554 1563 1570 1571 1571 1569 1568 1567 1566 1564 1561 1557 1553 1548 1543 1538 1533 1528 1522 1516 1511 1505 1500 1494 1489 1483 1479 1474 1469 1465 1461 1458 1455
1555 1554 1552 1552 1553 1553 1555 1547 1547 1547 1553 1559 1557 1572 1573 1572 1572 1571 1570 1568 1565 1562 1558 1554 1548 1543 1538 1532 1527 1520 1514 1508 1502 1497 1491 1485 1480 1475 1471 1466 1461 1456 1452 1448
1558 1556 1556 1557 1556 1553 1551 1545 1545 1545 1551 1554 1553 1568 1577 1572 1574 1575 1573 1570 1567 1563 1559 1554 1548 1543 1537 1531 1524 1517 1511 1505 1499 1494 1489 1483 1479 1474 1468 1462 1456 1451 1446 1442
1558 1557 1558 1558 1556 1554 1551 1548 1546 1550 1554 1556 1551 1564 1581 1578 1578 1578 1574 1571 1568 1563 1558 1553 1547 1542 1535 1528 1521 1514 1507 1501 1496 1490 1485 1480 1475 1469 1463 1456 1450 1444 1439 1436
1567 1562 1560 1559 1559 1557 1558 1563 1566 1564 1566 1560 1561 1572 1584 1582 1580 1579 1576 1573 1568 1563 1557 1551 1545 1539 1532 1525 1518 1511 1504 1497 1492 1486 1481 1476 1471 1465 1459 1452 1445 1439 1433 1429
1578 1574 1566 1562 1563 1564 1564 1568 1578 1580 1577 1570 1565 1579 1586 1583 1581 1580 1577 1573 1568 1562 1556 1550 1544 1538 1530 1523 1516 1509 1502 1495 1489 1483 1478 1473 1468 1462 1455 1449 1443 1436 1430 1424
1583 1579 1568 1564 1563 1563 1565 1569 1570 1579 1577 1577 1571 1581 1584 1582 1581 1579 1576 1572 1567 1561 1555 1549 1542 1535 1528 1521 1514 1508 1501 1494 1488 1482 1476 1470 1464 1458 1452 1446 1439 1432 1426 1420
1580 1582 1573 1567 1564 1564 1566 1569 1577 1578 1579 1577 1571 1580 1587 1584 1582 1578 1575 1570 1565 1559 1553 1546 1539 1533 1526 1520 1513 1506 1500 1493 1487 1481 1475 1469 1463 1457 1450 1443 1437 1429 1422 1416
1581 1583 1578 1572 1570 1571 1570 1573 1577 1582 1583 1587 1584 1589 1586 1586 1584 1580 1576 1570 1564 1558 1551 1544 1538 1531 1525 1518 1511 1504 1498 1492 1486 1480 1473 1467 1461 1455 1449 1442 1435 1427 1420 1413
1584 1586 1586 1578 1572 1571 1571 1576 1581 1588 1588 1589 1593 1594 1587 1586 1584 1580 1575 1569 1563 1557 1551 1544 1537 1530 1523 1516 1510 1503 1497 1491 1485 1479 1473 1466 1460 1454 1448 1441 1434 1427 1419 1412
1585 1588 1587 1578 1578 1578 1578 1579 1579 1584 1590 1593 1595 1593 1585 1584 1580 1575 1571 1565 1559 1554 1548 1542 1535 1529 1522 1516 1509 1503 1497 1491 1485 1478 1472 1466 1459 1453 1447 1441 1434 1427 1419 1412
1584 1589 1590 1586 1584 1586 1585 1583 1580 1583 1593 1595 1593 1593 1586 1581 1577 1572 1567 1562 1557 1552 1546 1540 1534 1528 1522 1516 1509 1502 1496 1490 1484 1478 1472 1465 1459 1453 1447 1441 1435 1428 1421 1414
1586 1590 1587 1587 1587 1586 1587 1587 1584 1586 1590 1595 1594 1592 1587 1582 1578 1572 1566 1561 1556 1551 1546 1540 1534 1528 1522 1515 1508 1502 1496 1490 1484 1478 1472 1465 1459 1453 1447 1441 1436 1430 1424 1417
1587 1590 1590 1589 1588 1588 1591 1591 1589 1589 1590 1591 1590 1589 1584 1579 1574 1569 1563 1559 1555 1550 1545 1540 1534 1528 1522 1515 1509 1502 1496 1490 1484 1478 1472 1466 1459 1453 1447 1441 1436 1431 1425 1420
1590 1592 1594 1597 1595 1590 1599 1594 1592 1591 1590 1590 1591 1589 1581 1576 1571 1566 1561 1558 1554 1550 1545 1540 1534 1528 1522 1516 1510 1503 1497 1490 1484 1478 1472 1466 1460 1453 1448 1442 1437 1431 1426 1421
1590 1592 1598 1602 1600 1602 1598 1591 1590 1589 1588 1588 1586 1582 1578 1575 1570 1564 1560 1557 1553 1549 1544 1538 1533 1527 1522 1516 1510 1504 1497 1490 1484 1478 1472 1466 1460 1454 1449 1443 1437 1432 1428 1423
1587 1592 1601 1607 1603 1601 1595 1589 1588 1588 1587 1585 1582 1578 1574 1570 1565 1563 1560 1556 1552 1548 1543 1538 1532 1527 1521 1515 1509 1503 1496 1489 1483 1476 1471 1465 1460 1454 1449 1443 1438 1433 1428 1424
1589 1592 1601 1605 1603 1601 1593 1587 1584 1586 1586 1582 1579 1576 1573 1567 1564 1562 1559 1554 1550 1546 1541 1535 1530 1525 1520 1514 1508 1501 1495 1488 1482 1476 1470 1465 1459 1454 1449 1443 1439 1434 1429 1425
1591 1596 1601 1603 1607 1598 1588 1585 1585 1592 1590 1580 1577 1575 1572 1568 1567 1562 1557 1553 1548 1543 1538 1533 1528 1523 1518 1513 1506 1500 1494 1487 1482 1476 1470 1464 1458 1453 1448 1443 1438 1434 1429 1425
1591 1597 1599 1602 1607 1601 1584 1583 1586 1586 1580 1578 1575 1572 1569 1566 1562 1558 1554 1550 1546 1541 1536 1531 1526 1522 1516 1511 1505 1499 1493 1487 1481 1475 1469 1463 1458 1453 1447 1442 1437 1433 1429 1425
1585 1586 1587 1589 1589 1582 1581 1582 1582 1580 1578 1575 1572 1569 1565 1562 1558 1555 1551 1547 1543 1538 1534 1529 1525 1520 1515 1509 1504 1498 1492 1486 1480 1474 1468 1463 1458 1452 1447 1442 1437 1432 1428 1425
1579 1578 1581 1581 1580 1580 1580 1579 1579 1577 1575 1572 1569 1566 1562 1559 1556 1552 1548 1545 1540 1536 1532 1528 1523 1517 1512 1507 1502 1497 1492 1486 1480 1474 1468 1463 1458 1452 1447 1442 1438 1434 1429 1426
1574 1576 1578 1579 1577 1577 1577 1577 1576 1574 1572 1570 1567 1563 1560 1557 1553 1550 1546 1543 1539 1535 1530 1526 1521 1516 1511 1506 1501 1496 1491 1485 1479 1473 1468 1462 1458 1452 1447 1443 1438 1434 1430 1428
1570 1572 1576 1576 1574 1575 1576 1575 1574 1572 1570 1567 1564 1561 1557 1554 1551 1548 1545 1541 1537 1533 1528 1524 1519 1514 1509 1504 1500 1495 1489 1484 1478 1472 1466 1461 1456 1451 1446 1441 1437 1433 1430 1426